CW3224 Weather Reports


time (UTC)temp
C
wind
direction
speed
KPH
gust
KPH
rain 1hr
cm
rain 24hr
cm
rain mn
cm
humidity
%
barometer
mb
20260831085254 15 165 0.0 0.0 0.00 0.00 0.00 88 1018.2
20260831084736 15 165 0.0 0.0 0.00 0.00 0.00 88 1018.2
20260831083254 15 164 0.0 0.0 0.00 0.00 0.00 88 1018.2
20260831082255 15 165 0.0 0.0 0.00 0.00 0.00 88 1017.9
20260831081254 16 165 0.0 0.0 0.00 0.00 0.00 87 1017.8
20260831080254 16 165 0.0 0.0 0.00 0.00 0.00 87 1017.8
20260831075735 16 165 0.0 0.0 0.00 0.00 0.00 86 1017.7
20260831074254 16 165 0.0 0.0 0.00 0.00 0.00 86 1017.6
20260831074224 16 164 0.0 0.0 0.00 0.00 0.00 86 1017.6
20260831072253 16 164 0.0 0.0 0.00 0.00 0.00 86 1017.6
20260831071253 17 164 0.0 0.0 0.00 0.00 0.00 86 1017.6
20260831070252 17 164 0.0 0.0 0.00 0.00 0.00 85 1017.6
20260831065252 17 164 0.0 0.0 0.00 0.00 0.00 85 1017.6
20260831064252 17 301 0.0 0.0 0.00 0.00 0.00 85 1017.6
20260831063250 17 165 0.0 0.0 0.00 0.00 0.00 84 1017.6
20260831062250 17 165 0.0 0.0 0.00 0.00 0.00 84 1017.6
20260831061250 18 165 0.0 0.0 0.00 0.00 0.00 84 1017.2
20260831060249 18 165 0.0 0.0 0.00 0.00 0.00 84 1017.2
20260831055249 18 165 0.0 0.0 0.00 0.00 0.00 83 1017.2
20260831054239 18 165 0.0 0.0 0.00 0.00 0.00 83 1017.0
20260831053239 18 165 0.0 0.0 0.00 0.00 0.00 83 1017.0
20260831053207 18 165 0.0 0.0 0.00 0.00 0.00 83 1017.0
20260831051239 19 165 0.0 0.0 0.00 0.00 0.00 82 1016.9
20260831050237 19 165 0.0 0.0 0.00 0.00 0.00 82 1016.9
20260831045238 19 165 0.0 0.0 0.00 0.00 0.00 81 1016.7
20260831044713 20 165 0.0 0.0 0.00 0.00 0.00 81 1016.5
20260831043720 20 165 0.0 0.0 0.00 0.00 0.00 80 1016.5
20260831042716 20 165 0.0 0.0 0.00 0.00 0.00 80 1016.5
20260831041715 20 165 0.0 0.0 0.00 0.00 0.00 80 1016.5
20260831040237 20 165 0.0 0.0 0.00 0.00 0.00 80 1016.5
20260831035236 20 165 0.0 0.0 0.00 0.00 0.00 80 1016.4
20260831034225 21 165 0.0 0.0 0.00 0.00 0.00 80 1016.4
20260831033225 21 165 0.0 0.0 0.00 0.00 0.00 80 1016.4
20260831032709 21 165 0.0 0.0 0.00 0.00 0.00 80 1016.5
20260831031707 21 165 0.0 0.0 0.00 0.00 0.00 80 1016.4
20260831030224 21 165 0.0 0.0 0.00 0.00 0.00 81 1016.4
20260831025220 21 165 0.0 0.0 0.00 0.00 0.00 81 1016.1
20260831024222 21 146 0.0 0.0 0.00 0.00 0.00 81 1016.5
20260831023221 21 141 0.0 3.2 0.00 0.00 0.00 81 1016.5
20260831022221 21 141 0.0 1.6 0.00 0.00 0.00 82 1016.4
20260831021701 21 141 0.0 1.6 0.00 0.00 0.00 81 1016.4
20260831020222 21 135 0.0 0.0 0.00 0.00 0.00 81 1016.4
20260831015216 21 135 0.0 0.0 0.00 0.00 0.00 81 1016.0
20260831014215 21 135 0.0 0.0 0.00 0.00 0.00 81 1016.0
20260831013216 21 127 0.0 3.2 0.00 0.00 0.00 80 1016.0
20260831012213 22 180 0.0 1.6 0.00 0.00 0.00 80 1015.9
20260831011214 22 180 0.0 6.4 0.00 0.00 0.00 79 1015.7
20260831010211 22 154 0.0 0.0 0.00 0.00 0.00 79 1015.7
20260831005211 22 137 0.0 0.0 0.00 0.00 0.00 79 1015.6
20260831004211 22 224 0.0 0.0 0.00 0.00 0.00 79 1015.5
20260831003211 22 224 0.0 4.8 0.00 0.00 0.00 78 1015.5
20260831002212 22 185 0.0 0.0 0.00 0.00 0.00 78 1015.4
20260831001209 22 191 0.0 0.0 0.00 0.00 0.00 77 1015.1
20260831000653 22 180 0.0 3.2 0.00 0.00 0.00 76 1015.1
20260830235208 22 191 0.0 4.8 0.00 0.00 0.00 76 1015.0
20260830234208 22 193 0.0 0.0 0.00 0.00 0.00 75 1014.9
20260830233211 22 192 0.0 0.0 0.00 0.00 0.00 74 1014.9
20260830232207 22 200 0.0 0.0 0.00 0.00 0.00 74 1014.9
20260830231207 22 200 0.0 0.0 0.00 0.00 0.00 73 1015.0
20260830230652 23 200 0.0 0.0 0.00 0.00 0.00 72 1015.0
20260830225206 23 200 0.0 0.0 0.00 0.00 0.00 71 1015.4
20260830224207 23 201 0.0 3.2 0.00 0.00 0.00 71 1015.4
20260830223206 23 181 0.0 8.0 0.00 0.00 0.00 70 1015.4
20260830222205 23 194 0.0 8.0 0.00 0.00 0.00 70 1015.4
20260830221205 23 204 0.0 3.2 0.00 0.00 0.00 70 1015.5
20260830220205 23 195 0.0 14.5 0.00 0.00 0.00 70 1015.5
20260830215205 23 193 0.0 0.0 0.00 0.00 0.00 70 1015.5
20260830214205 23 169 0.0 0.0 0.00 0.00 0.00 71 1015.5
20260830213206 23 200 0.0 0.0 0.00 0.00 0.00 72 1015.5
20260830212203 23 204 0.0 6.4 0.00 0.00 0.00 71 1015.4
20260830211635 24 243 0.0 0.0 0.00 0.00 0.00 70 1015.8
20260830210200 24 243 0.0 0.0 0.00 0.00 0.00 71 1015.8
20260830210109 24 162 0.0 3.2 0.00 0.00 0.00 70 1015.6
20260830204157 24 207 0.0 0.0 0.00 0.00 0.00 70 1015.7
20260830203156 24 189 0.0 1.6 0.00 0.00 0.00 69 1015.7
20260830202157 24 195 0.0 0.0 0.00 0.00 0.00 70 1016.0
20260830201157 24 195 0.0 8.0 0.00 0.00 0.00 68 1016.0
20260830200157 24 179 0.0 8.0 0.00 0.00 0.00 68 1016.0
20260830195158 24 208 0.0 0.0 0.00 0.00 0.00 68 1016.0
20260830194157 24 197 0.0 9.7 0.00 0.00 0.00 67 1016.5
20260830193154 24 187 3.2 8.0 0.00 0.00 0.00 67 1016.5
20260830192639 25 184 3.2 11.3 0.00 0.00 0.00 66 1016.5
20260830191153 25 183 3.2 9.7 0.00 0.00 0.00 65 1016.8
20260830190154 25 202 3.2 9.7 0.00 0.00 0.00 63 1016.8
20260830185151 25 212 4.8 9.7 0.00 0.00 0.00 63 1016.9
20260830184152 26 179 3.2 11.3 0.00 0.00 0.00 64 1017.0
20260830183151 26 216 1.6 8.0 0.00 0.00 0.00 65 1017.0
20260830182151 26 213 0.0 6.4 0.00 0.00 0.00 65 1017.0
20260830181150 25 179 0.0 0.0 0.00 0.00 0.00 67 1017.2
20260830180150 25 188 1.6 4.8 0.00 0.00 0.00 64 1017.2
20260830175150 25 187 1.6 9.7 0.00 0.00 0.00 65 1017.6
20260830174150 25 189 1.6 6.4 0.00 0.00 0.00 65 1017.7
20260830173150 25 198 3.2 9.7 0.00 0.00 0.00 64 1017.7
20260830172638 26 339 3.2 8.0 0.00 0.00 0.00 67 1017.8
20260830171151 25 231 3.2 11.3 0.00 0.00 0.00 64 1017.8
20260830170150 25 164 1.6 8.0 0.00 0.00 0.00 64 1017.8
20260830165151 25 171 1.6 9.7 0.00 0.00 0.00 63 1018.0
20260830164151 25 187 1.6 11.3 0.00 0.00 0.00 62 1018.3
20260830163151 26 306 1.6 6.4 0.00 0.00 0.00 64 1018.3
20260830162150 26 244 1.6 11.3 0.00 0.00 0.00 62 1018.2
20260830161149 25 130 1.6 16.1 0.00 0.00 0.00 62 1018.6
20260830160148 25 127 1.6 6.4 0.00 0.00 0.00 62 1018.6
20260830155148 25 177 1.6 9.7 0.00 0.00 0.00 59 1018.6
20260830154148 26 110 1.6 8.0 0.00 0.00 0.00 62 1018.6
20260830153528 26 183 1.6 8.0 0.00 0.00 0.00 60 1018.7
20260830153205 26 216 1.6 9.7 0.00 0.00 0.00 57 1018.6
20260830151138 26 209 3.2 14.5 0.00 0.00 0.00 59 1018.8
20260830150138 26 187 3.2 11.3 0.00 0.00 0.00 60 1018.8
20260830145138 26 154 1.6 9.7 0.00 0.00 0.00 62 1018.7
20260830144138 26 203 3.2 9.7 0.00 0.00 0.00 64 1018.7
20260830143137 25 173 3.2 11.3 0.00 0.00 0.00 64 1018.7
20260830142140 25 268 3.2 14.5 0.00 0.00 0.00 65 1018.7
20260830141138 24 150 4.8 11.3 0.00 0.00 0.00 67 1018.9
20260830140138 23 189 3.2 14.5 0.00 0.00 0.00 71 1018.9
20260830135620 22 174 3.2 11.3 0.00 0.00 0.00 72 1019.2
20260830134138 22 173 1.6 11.3 0.00 0.00 0.00 72 1019.2
20260830133139 21 189 3.2 8.0 0.00 0.00 0.00 72 1019.2
20260830132139 20 179 1.6 9.7 0.00 0.00 0.00 74 1019.2
20260830131139 20 146 1.6 6.4 0.00 0.00 0.00 78 1019.3
20260830130139 19 244 1.6 6.4 0.00 0.00 0.00 78 1019.3
20260830125139 18 177 1.6 9.7 0.00 0.00 0.00 81 1019.5
20260830124129 18 353 1.6 8.0 0.00 0.00 0.00 82 1019.7
20260830123127 17 188 1.6 4.8 0.00 0.00 0.00 83 1019.7
20260830122129 17 188 1.6 8.0 0.00 0.00 0.00 84 1019.8
20260830121612 16 195 1.6 6.4 0.00 0.00 0.00 85 1019.8
20260830120606 16 301 1.6 6.4 0.00 0.00 0.00 86 1019.8
20260830115126 15 301 1.6 4.8 0.00 0.00 0.00 87 1019.8
20260830114126 15 301 1.6 4.8 0.00 0.00 0.00 88 1019.8
20260830113126 14 301 0.0 1.6 0.00 0.00 0.00 88 1019.8
20260830112127 14 301 0.0 4.8 0.00 0.00 0.00 88 1019.8
20260830111127 14 301 0.0 4.8 0.00 0.00 0.00 88 1019.8
20260830110606 14 301 1.6 3.2 0.00 0.00 0.00 88 1019.8
20260830105120 14 301 0.0 3.2 0.00 0.00 0.00 88 1019.9
20260830104119 13 301 0.0 3.2 0.00 0.00 0.00 88 1019.8
20260830103604 13 301 1.6 6.4 0.00 0.00 0.00 88 1019.8
20260830102609 13 301 1.6 4.8 0.00 0.00 0.00 89 1019.8
20260830101120 13 301 0.0 3.2 0.00 0.00 0.00 89 1019.9
20260830100117 13 301 1.6 8.0 0.00 0.00 0.00 89 1019.9
20260830095119 13 301 0.0 0.0 0.00 0.00 0.00 89 1019.8
20260830094117 13 301 0.0 0.0 0.00 0.00 0.00 89 1019.8
20260830093118 13 301 0.0 0.0 0.00 0.00 0.00 89 1019.8
20260830092118 13 301 0.0 0.0 0.00 0.00 0.00 89 1019.8
20260830091553 13 301 0.0 0.0 0.00 0.00 0.00 90 1020.1
20260830090111 13 301 0.0 0.0 0.00 0.00 0.00 90 1020.1